QPF
0.02 0.01 0.02 0.02 0.01 0.01 0.01 0.01 0.01 0.02 0.02 0.02 0.01 0.02 0.02 0.02 0.03 0.04 0.06 0.08 0.07 0.10 0.12 0.11 0.10 0.13 0.13 0.10 0.08 0.08 0.06 0.07 0.08 0.07 0.06 0.05 0.05 0.07 0.09 0.09 0.08 0.06 0.05
0.00 0.00 0.01 0.01 0.01 0.02 0.01 0.00 0.01 0.02 0.02 0.01 0.01 0.01 0.01 0.01 0.03 0.05 0.05 0.07 0.08 0.10 0.12 0.11 0.10 0.11 0.11 0.08 0.07 0.05 0.04 0.07 0.08 0.08 0.06 0.06 0.06 0.07 0.08 0.06 0.05 0.04 0.04
0.00 0.00 0.00 0.01 0.01 0.02 0.02 0.01 0.01 0.02 0.01 0.01 0.01 0.01 0.01 0.01 0.03 0.04 0.04 0.07 0.08 0.08 0.10 0.11 0.09 0.09 0.09 0.08 0.07 0.05 0.05 0.08 0.10 0.08 0.06 0.04 0.07 0.08 0.06 0.06 0.05 0.05 0.04
0.00 0.02 0.07 0.07 0.04 0.02 0.02 0.01 0.01 0.01 0.01 0.01 0.01 0.01 0.01 0.02 0.04 0.05 0.04 0.06 0.08 0.10 0.13 0.11 0.08 0.08 0.09 0.08 0.06 0.06 0.07 0.07 0.07 0.08 0.05 0.03 0.05 0.08 0.06 0.05 0.05 0.05 0.04
0.01 0.06 0.13 0.17 0.10 0.04 0.02 0.02 0.01 0.01 0.01 0.01 0.01 0.01 0.01 0.02 0.05 0.06 0.05 0.04 0.06 0.08 0.09 0.09 0.07 0.07 0.08 0.08 0.07 0.06 0.05 0.05 0.06 0.07 0.05 0.05 0.04 0.07 0.06 0.06 0.06 0.06 0.05
0.01 0.04 0.08 0.10 0.09 0.04 0.02 0.02 0.01 0.01 0.01 0.01 0.01 0.01 0.01 0.02 0.03 0.04 0.04 0.05 0.04 0.06 0.06 0.07 0.06 0.06 0.07 0.07 0.05 0.04 0.04 0.06 0.05 0.06 0.08 0.05 0.03 0.06 0.08 0.06 0.06 0.05 0.05
0.01 0.02 0.03 0.03 0.03 0.02 0.01 0.01 0.00 0.00 0.00 0.00 0.00 0.00 0.00 0.01 0.03 0.03 0.04 0.04 0.04 0.04 0.05 0.05 0.04 0.06 0.05 0.03 0.03 0.04 0.05 0.06 0.05 0.06 0.08 0.08 0.04 0.05 0.07 0.07 0.08 0.07 0.07
0.01 0.01 0.02 0.02 0.02 0.02 0.01 0.00 0.00 0.00 0.00 0.00 0.00 0.00 0.00 0.02 0.03 0.02 0.03 0.03 0.03 0.03 0.04 0.05 0.05 0.05 0.03 0.02 0.03 0.04 0.05 0.04 0.05 0.04 0.05 0.06 0.04 0.06 0.07 0.06 0.06 0.07 0.07
0.00 0.00 0.01 0.01 0.01 0.01 0.01 0.00 0.00 0.00 0.00 0.00 0.00 0.00 0.01 0.02 0.02 0.02 0.02 0.02 0.02 0.02 0.04 0.03 0.03 0.02 0.01 0.02 0.02 0.03 0.03 0.04 0.05 0.03 0.04 0.03 0.02 0.04 0.07 0.06 0.06 0.05 0.05
0.00 0.00 0.00 0.01 0.00 0.00 0.00 0.00 0.00 0.00 0.00 0.00 0.00 0.01 0.02 0.03 0.03 0.03 0.03 0.03 0.02 0.03 0.03 0.03 0.02 0.01 0.01 0.02 0.02 0.02 0.02 0.04 0.04 0.02 0.02 0.02 0.02 0.04 0.05 0.06 0.07 0.04 0.03
0.01 0.01 0.01 0.00 0.00 0.00 0.00 0.00 0.00 0.00 0.00 0.00 0.01 0.02 0.03 0.03 0.03 0.02 0.02 0.02 0.04 0.05 0.04 0.03 0.02 0.02 0.02 0.02 0.03 0.03 0.03 0.04 0.03 0.02 0.02 0.02 0.03 0.04 0.05 0.06 0.08 0.05 0.03
0.02 0.01 0.01 0.01 0.01 0.01 0.01 0.00 0.00 0.00 0.00 0.00 0.00 0.00 0.01 0.02 0.02 0.01 0.02 0.03 0.08 0.10 0.07 0.02 0.02 0.02 0.02 0.02 0.03 0.03 0.03 0.05 0.03 0.02 0.01 0.02 0.04 0.05 0.05 0.04 0.05 0.06 0.04
0.02 0.01 0.01 0.00 0.00 0.00 0.01 0.00 0.01 0.01 0.01 0.01 0.00 0.00 0.01 0.01 0.02 0.01 0.01 0.03 0.05 0.07 0.06 0.04 0.03 0.02 0.02 0.02 0.03 0.04 0.05 0.04 0.03 0.02 0.02 0.05 0.06 0.05 0.06 0.05 0.04 0.05 0.05
0.01 0.01 0.01 0.01 0.00 0.00 0.00 0.00 0.00 0.01 0.01 0.01 0.01 0.01 0.00 0.01 0.01 0.01 0.02 0.03 0.05 0.03 0.04 0.05 0.02 0.02 0.03 0.04 0.03 0.04 0.08 0.04 0.03 0.03 0.05 0.09 0.07 0.05 0.08 0.07 0.04 0.04 0.05
0.02 0.02 0.01 0.00 0.00 0.00 0.00 0.00 0.00 0.01 0.01 0.00 0.01 0.01 0.01 0.01 0.01 0.01 0.03 0.03 0.03 0.03 0.04 0.04 0.02 0.02 0.02 0.02 0.03 0.05 0.08 0.08 0.08 0.03 0.06 0.07 0.06 0.05 0.08 0.09 0.06 0.05 0.06
0.03 0.03 0.01 0.01 0.00 0.00 0.01 0.01 0.01 0.00 0.00 0.01 0.01 0.01 0.01 0.01 0.01 0.01 0.02 0.02 0.03 0.05 0.07 0.04 0.02 0.03 0.04 0.04 0.04 0.08 0.08 0.08 0.13 0.06 0.06 0.05 0.07 0.08 0.09 0.09 0.09 0.08 0.08
0.06 0.05 0.03 0.02 0.02 0.01 0.01 0.01 0.02 0.02 0.01 0.01 0.01 0.01 0.01 0.01 0.02 0.02 0.02 0.03 0.05 0.05 0.04 0.03 0.03 0.03 0.04 0.06 0.08 0.09 0.07 0.05 0.06 0.05 0.05 0.05 0.07 0.13 0.13 0.13 0.13 0.12 0.13
0.06 0.08 0.07 0.05 0.05 0.03 0.01 0.02 0.01 0.01 0.01 0.01 0.02 0.02 0.02 0.02 0.02 0.02 0.03 0.04 0.05 0.04 0.03 0.03 0.04 0.05 0.05 0.08 0.11 0.08 0.04 0.03 0.02 0.02 0.03 0.05 0.06 0.10 0.13 0.14 0.15 0.14 0.13
0.09 0.09 0.08 0.07 0.06 0.04 0.02 0.01 0.01 0.00 0.01 0.02 0.03 0.02 0.02 0.02 0.02 0.03 0.03 0.03 0.04 0.04 0.04 0.04 0.06 0.08 0.09 0.06 0.06 0.05 0.02 0.02 0.02 0.03 0.03 0.04 0.05 0.08 0.12 0.15 0.15 0.14 0.14
0.20 0.12 0.08 0.08 0.08 0.07 0.03 0.01 0.01 0.01 0.01 0.02 0.02 0.02 0.01 0.01 0.03 0.04 0.04 0.03 0.04 0.04 0.05 0.04 0.04 0.04 0.05 0.04 0.04 0.04 0.02 0.02 0.03 0.03 0.02 0.02 0.03 0.05 0.08 0.13 0.15 0.14 0.13
0.19 0.15 0.12 0.11 0.12 0.12 0.05 0.01 0.01 0.01 0.01 0.01 0.01 0.01 0.01 0.00 0.02 0.02 0.03 0.03 0.03 0.04 0.05 0.04 0.03 0.03 0.04 0.04 0.03 0.02 0.02 0.01 0.03 0.03 0.02 0.03 0.03 0.03 0.04 0.06 0.08 0.09 0.09
0.13 0.12 0.10 0.12 0.14 0.13 0.05 0.02 0.01 0.01 0.01 0.00 0.00 0.01 0.00 0.00 0.00 0.01 0.01 0.01 0.02 0.03 0.04 0.04 0.03 0.03 0.02 0.03 0.03 0.02 0.02 0.01 0.01 0.02 0.04 0.04 0.03 0.02 0.03 0.04 0.04 0.04 0.04
0.08 0.11 0.12 0.11 0.09 0.06 0.04 0.02 0.01 0.01 0.01 0.01 0.00 0.00 0.00 0.00 0.01 0.01 0.01 0.01 0.02 0.03 0.03 0.03 0.02 0.02 0.02 0.04 0.04 0.04 0.03 0.01 0.01 0.02 0.03 0.04 0.04 0.06 0.07 0.07 0.05 0.03 0.02
0.02 0.06 0.08 0.06 0.04 0.04 0.04 0.03 0.01 0.01 0.01 0.01 0.00 0.00 0.01 0.01 0.01 0.01 0.01 0.01 0.01 0.01 0.02 0.02 0.02 0.02 0.03 0.03 0.04 0.04 0.04 0.04 0.03 0.01 0.01 0.02 0.03 0.04 0.04 0.05 0.04 0.03 0.02
0.02 0.01 0.02 0.03 0.02 0.03 0.04 0.04 0.02 0.02 0.01 0.01 0.01 0.01 0.01 0.01 0.00 0.01 0.01 0.02 0.01 0.02 0.02 0.02 0.03 0.03 0.04 0.04 0.03 0.03 0.04 0.04 0.03 0.02 0.01 0.01 0.01 0.01 0.02 0.03 0.04 0.03 0.04
0.02 0.02 0.02 0.02 0.02 0.05 0.05 0.04 0.03 0.02 0.02 0.02 0.01 0.01 0.01 0.01 0.00 0.01 0.03 0.04 0.02 0.03 0.03 0.03 0.04 0.03 0.02 0.03 0.03 0.04 0.04 0.04 0.03 0.03 0.02 0.01 0.01 0.01 0.01 0.01 0.03 0.04 0.06
MSLP
1010.02 1009.33 1008.66 1008.15 1007.82 1007.67 1007.64 1007.62 1007.53 1007.29 1006.88 1006.34 1005.72 1005.10 1004.52 1003.97 1003.40 1002.74 1001.90 1000.83 999.55 998.14 996.74 995.53 994.69 994.36 994.58 995.33 996.48 997.87 999.32 1000.67 1001.80 1002.68 1003.32 1003.79 1004.18 1004.58 1005.05 1005.61 1006.27 1006.98 1007.72
1009.86 1009.25 1008.69 1008.25 1008.00 1007.90 1007.88 1007.86 1007.75 1007.50 1007.09 1006.56 1005.98 1005.41 1004.87 1004.37 1003.84 1003.22 1002.42 1001.40 1000.17 998.82 997.49 996.34 995.54 995.22 995.42 996.11 997.18 998.48 999.85 1001.14 1002.24 1003.12 1003.78 1004.30 1004.74 1005.18 1005.66 1006.21 1006.83 1007.48 1008.13
1009.62 1009.11 1008.64 1008.31 1008.13 1008.09 1008.10 1008.10 1008.00 1007.75 1007.36 1006.87 1006.33 1005.79 1005.31 1004.85 1004.38 1003.81 1003.09 1002.17 1001.08 999.87 998.69 997.68 996.97 996.69 996.86 997.47 998.41 999.55 1000.76 1001.92 1002.93 1003.76 1004.43 1004.97 1005.44 1005.91 1006.39 1006.92 1007.49 1008.07 1008.63
1009.35 1008.94 1008.58 1008.34 1008.24 1008.26 1008.31 1008.34 1008.26 1008.03 1007.67 1007.21 1006.71 1006.22 1005.77 1005.35 1004.93 1004.44 1003.82 1003.05 1002.14 1001.16 1000.19 999.37 998.81 998.59 998.75 999.25 1000.03 1000.97 1001.98 1002.95 1003.83 1004.58 1005.22 1005.76 1006.25 1006.72 1007.21 1007.70 1008.21 1008.71 1009.18
1009.14 1008.81 1008.54 1008.39 1008.37 1008.43 1008.53 1008.58 1008.52 1008.33 1008.00 1007.57 1007.11 1006.65 1006.22 1005.83 1005.45 1005.04 1004.54 1003.93 1003.24 1002.50 1001.79 1001.20 1000.82 1000.69 1000.84 1001.24 1001.84 1002.57 1003.36 1004.13 1004.86 1005.50 1006.08 1006.61 1007.10 1007.58 1008.04 1008.49 1008.93 1009.34 1009.72
1009.03 1008.78 1008.59 1008.51 1008.54 1008.65 1008.76 1008.83 1008.79 1008.62 1008.33 1007.94 1007.50 1007.07 1006.66 1006.29 1005.93 1005.57 1005.18 1004.73 1004.25 1003.76 1003.31 1002.96 1002.76 1002.73 1002.89 1003.21 1003.66 1004.18 1004.75 1005.33 1005.90 1006.44 1006.97 1007.47 1007.94 1008.40 1008.82 1009.22 1009.57 1009.90 1010.18
1009.05 1008.87 1008.75 1008.73 1008.79 1008.92 1009.04 1009.11 1009.08 1008.93 1008.66 1008.30 1007.90 1007.48 1007.09 1006.72 1006.38 1006.06 1005.74 1005.42 1005.11 1004.84 1004.62 1004.49 1004.46 1004.53 1004.71 1004.96 1005.28 1005.64 1006.04 1006.45 1006.88 1007.33 1007.80 1008.26 1008.71 1009.14 1009.51 1009.84 1010.11 1010.34 1010.54
1009.20 1009.08 1009.02 1009.03 1009.12 1009.24 1009.35 1009.41 1009.37 1009.23 1008.98 1008.67 1008.30 1007.91 1007.53 1007.17 1006.83 1006.51 1006.23 1006.00 1005.81 1005.70 1005.65 1005.69 1005.79 1005.96 1006.16 1006.38 1006.62 1006.86 1007.12 1007.41 1007.75 1008.13 1008.54 1008.97 1009.39 1009.77 1010.08 1010.33 1010.51 1010.65 1010.76
1009.40 1009.36 1009.35 1009.40 1009.50 1009.60 1009.68 1009.71 1009.66 1009.53 1009.31 1009.04 1008.72 1008.37 1008.02 1007.66 1007.32 1007.00 1006.73 1006.52 1006.39 1006.36 1006.43 1006.57 1006.77 1007.00 1007.23 1007.44 1007.63 1007.81 1007.99 1008.21 1008.49 1008.82 1009.20 1009.59 1009.97 1010.30 1010.54 1010.71 1010.80 1010.85 1010.89
1009.59 1009.62 1009.68 1009.77 1009.86 1009.95 1009.99 1009.98 1009.92 1009.79 1009.61 1009.39 1009.14 1008.86 1008.55 1008.22 1007.88 1007.55 1007.27 1007.05 1006.93 1006.92 1007.03 1007.22 1007.48 1007.75 1008.00 1008.22 1008.39 1008.55 1008.70 1008.89 1009.13 1009.44 1009.78 1010.15 1010.48 1010.74 1010.92 1011.01 1011.02 1010.99 1010.97
1009.68 1009.81 1009.94 1010.06 1010.16 1010.22 1010.23 1010.19 1010.11 1010.00 1009.86 1009.72 1009.55 1009.35 1009.12 1008.83 1008.52 1008.18 1007.88 1007.63 1007.49 1007.46 1007.56 1007.76 1008.02 1008.31 1008.59 1008.82 1009.01 1009.17 1009.33 1009.51 1009.74 1010.02 1010.34 1010.65 1010.94 1011.14 1011.26 1011.28 1011.23 1011.14 1011.06
1009.64 1009.87 1010.07 1010.24 1010.35 1010.39 1010.37 1010.31 1010.22 1010.13 1010.05 1009.98 1009.91 1009.82 1009.67 1009.46 1009.19 1008.88 1008.57 1008.30 1008.12 1008.05 1008.11 1008.29 1008.54 1008.83 1009.11 1009.37 1009.58 1009.76 1009.94 1010.12 1010.34 1010.59 1010.87 1011.14 1011.37 1011.52 1011.58 1011.55 1011.46 1011.33 1011.22
1009.48 1009.80 1010.07 1010.29 1010.41 1010.45 1010.41 1010.33 1010.24 1010.18 1010.15 1010.17 1010.20 1010.21 1010.17 1010.06 1009.86 1009.60 1009.30 1009.03 1008.82 1008.72 1008.74 1008.88 1009.11 1009.39 1009.69 1009.95 1010.19 1010.39 1010.57 1010.76 1010.95 1011.17 1011.40 1011.61 1011.77 1011.87 1011.89 1011.84 1011.73 1011.59 1011.47
1009.23 1009.63 1009.97 1010.23 1010.37 1010.41 1010.37 1010.29 1010.21 1010.18 1010.20 1010.29 1010.41 1010.52 1010.59 1010.57 1010.47 1010.27 1010.03 1009.78 1009.58 1009.47 1009.46 1009.58 1009.78 1010.05 1010.33 1010.61 1010.86 1011.07 1011.25 1011.41 1011.57 1011.74 1011.90 1012.04 1012.15 1012.20 1012.20 1012.14 1012.04 1011.92 1011.81
1008.97 1009.43 1009.82 1010.11 1010.28 1010.33 1010.30 1010.24 1010.18 1010.17 1010.23 1010.37 1010.55 1010.74 1010.89 1010.97 1010.95 1010.85 1010.68 1010.49 1010.33 1010.23 1010.23 1010.33 1010.52 1010.77 1011.05 1011.32 1011.56 1011.76 1011.92 1012.05 1012.16 1012.26 1012.35 1012.42 1012.48 1012.50 1012.49 1012.45 1012.38 1012.29 1012.20
1008.78 1009.27 1009.68 1009.99 1010.18 1010.27 1010.27 1010.23 1010.20 1010.22 1010.30 1010.46 1010.67 1010.89 1011.10 1011.24 1011.31 1011.29 1011.21 1011.10 1011.01 1010.96 1010.99 1011.10 1011.28 1011.52 1011.78 1012.03 1012.25 1012.42 1012.55 1012.63 1012.68 1012.71 1012.73 1012.75 1012.76 1012.77 1012.77 1012.75 1012.72 1012.68 1012.63
1008.71 1009.18 1009.60 1009.92 1010.14 1010.26 1010.31 1010.32 1010.33 1010.37 1010.46 1010.61 1010.81 1011.03 1011.24 1011.42 1011.54 1011.60 1011.61 1011.60 1011.59 1011.61 1011.68 1011.81 1012.00 1012.22 1012.46 1012.69 1012.87 1013.01 1013.10 1013.13 1013.13 1013.10 1013.07 1013.04 1013.03 1013.03 1013.04 1013.06 1013.08 1013.09 1013.07
1008.76 1009.20 1009.59 1009.91 1010.16 1010.33 1010.45 1010.53 1010.59 1010.65 1010.74 1010.87 1011.02 1011.19 1011.37 1011.54 1011.68 1011.80 1011.89 1011.97 1012.05 1012.14 1012.27 1012.43 1012.63 1012.84 1013.06 1013.25 1013.40 1013.51 1013.56 1013.56 1013.52 1013.46 1013.39 1013.34 1013.31 1013.32 1013.35 1013.41 1013.47 1013.51 1013.51
1008.92 1009.30 1009.65 1009.96 1010.24 1010.47 1010.67 1010.83 1010.95 1011.05 1011.15 1011.23 1011.32 1011.43 1011.54 1011.67 1011.80 1011.95 1012.09 1012.25 1012.41 1012.58 1012.76 1012.96 1013.16 1013.36 1013.55 1013.72 1013.85 1013.93 1013.97 1013.96 1013.91 1013.84 1013.77 1013.71 1013.69 1013.70 1013.75 1013.83 1013.91 1013.96 1013.96
1009.16 1009.46 1009.75 1010.05 1010.35 1010.65 1010.93 1011.18 1011.39 1011.54 1011.63 1011.69 1011.72 1011.74 1011.77 1011.84 1011.95 1012.09 1012.28 1012.49 1012.72 1012.95 1013.18 1013.40 1013.61 1013.80 1013.97 1014.12 1014.23 1014.32 1014.36 1014.36 1014.34 1014.29 1014.24 1014.20 1014.18 1014.21 1014.27 1014.35 1014.43 1014.47 1014.45
1009.43 1009.64 1009.87 1010.14 1010.46 1010.81 1011.18 1011.53 1011.82 1012.03 1012.15 1012.19 1012.17 1012.12 1012.09 1012.09 1012.16 1012.30 1012.50 1012.75 1013.02 1013.30 1013.56 1013.80 1014.01 1014.19 1014.34 1014.48 1014.60 1014.70 1014.77 1014.82 1014.84 1014.84 1014.83 1014.82 1014.83 1014.86 1014.91 1014.97 1015.01 1015.02 1014.96
1009.69 1009.82 1009.98 1010.22 1010.54 1010.94 1011.39 1011.82 1012.20 1012.48 1012.64 1012.69 1012.64 1012.55 1012.46 1012.42 1012.46 1012.58 1012.79 1013.06 1013.36 1013.67 1013.95 1014.19 1014.39 1014.56 1014.71 1014.84 1014.97 1015.10 1015.22 1015.33 1015.42 1015.48 1015.53 1015.56 1015.58 1015.60 1015.62 1015.64 1015.64 1015.59 1015.49
1009.93 1010.00 1010.10 1010.30 1010.61 1011.03 1011.52 1012.03 1012.48 1012.83 1013.04 1013.12 1013.08 1012.98 1012.88 1012.81 1012.83 1012.95 1013.17 1013.45 1013.76 1014.07 1014.35 1014.58 1014.77 1014.92 1015.06 1015.20 1015.35 1015.52 1015.70 1015.87 1016.03 1016.17 1016.27 1016.33 1016.36 1016.37 1016.35 1016.32 1016.25 1016.14 1015.97
1010.16 1010.19 1010.25 1010.40 1010.68 1011.10 1011.61 1012.15 1012.65 1013.06 1013.33 1013.45 1013.45 1013.38 1013.29 1013.24 1013.26 1013.38 1013.60 1013.88 1014.19 1014.50 1014.76 1014.98 1015.14 1015.27 1015.40 1015.54 1015.71 1015.91 1016.14 1016.38 1016.61 1016.80 1016.95 1017.04 1017.07 1017.06 1017.00 1016.90 1016.77 1016.59 1016.37
1010.38 1010.40 1010.43 1010.54 1010.79 1011.17 1011.66 1012.20 1012.73 1013.17 1013.49 1013.67 1013.73 1013.71 1013.66 1013.64 1013.70 1013.83 1014.06 1014.34 1014.64 1014.92 1015.15 1015.34 1015.48 1015.59 1015.69 1015.83 1016.01 1016.24 1016.50 1016.79 1017.07 1017.31 1017.49 1017.60 1017.63 1017.59 1017.49 1017.34 1017.14 1016.91 1016.65
1010.57 1010.62 1010.65 1010.74 1010.93 1011.27 1011.71 1012.22 1012.74 1013.19 1013.55 1013.78 1013.90 1013.95 1013.96 1014.00 1014.09 1014.26 1014.49 1014.76 1015.04 1015.29 1015.50 1015.65 1015.75 1015.83 1015.92 1016.04 1016.22 1016.46 1016.75 1017.06 1017.37 1017.63 1017.83 1017.95 1017.98 1017.92 1017.79 1017.59 1017.35 1017.08 1016.79
Thickness
5794 5795 5794 5793 5792 5791 5789 5787 5786 5785 5783 5782 5781 5780 5779 5779 5778 5776 5775 5773 5772 5770 5769 5768 5767 5767 5766 5765 5765 5763 5762 5761 5761 5760 5759 5759 5759 5759 5758 5758 5757 5756 5755
5800 5797 5795 5794 5792 5790 5789 5787 5785 5783 5782 5781 5780 5779 5778 5777 5776 5774 5773 5771 5770 5768 5767 5766 5765 5764 5764 5764 5763 5761 5760 5760 5759 5758 5757 5757 5757 5757 5757 5756 5755 5754 5753
5801 5798 5796 5794 5792 5790 5788 5786 5784 5782 5781 5780 5778 5777 5776 5775 5774 5772 5771 5769 5768 5766 5765 5764 5763 5763 5762 5762 5761 5760 5759 5758 5757 5756 5756 5755 5755 5755 5755 5754 5754 5753 5752
5803 5799 5797 5794 5792 5790 5787 5785 5783 5781 5779 5778 5777 5775 5774 5773 5772 5770 5769 5767 5766 5765 5763 5762 5761 5761 5760 5760 5759 5758 5757 5756 5755 5755 5754 5754 5753 5753 5753 5753 5752 5752 5751
5802 5800 5799 5794 5792 5789 5787 5784 5782 5780 5778 5776 5775 5774 5772 5771 5770 5768 5767 5765 5764 5762 5761 5760 5760 5759 5758 5758 5757 5757 5756 5755 5754 5753 5753 5752 5752 5752 5752 5751 5751 5750 5750
5801 5799 5796 5794 5791 5788 5786 5784 5781 5779 5777 5775 5774 5772 5771 5769 5768 5767 5765 5764 5763 5761 5760 5759 5758 5757 5756 5756 5755 5755 5755 5754 5753 5752 5752 5751 5751 5751 5750 5750 5749 5749 5748
5800 5798 5795 5793 5790 5787 5785 5782 5780 5778 5776 5774 5772 5771 5769 5768 5767 5765 5764 5762 5761 5760 5759 5758 5757 5756 5755 5754 5754 5754 5753 5752 5752 5751 5750 5750 5750 5750 5750 5749 5749 5748 5747
5802 5797 5794 5792 5789 5786 5784 5781 5779 5777 5774 5772 5771 5769 5768 5767 5765 5764 5763 5761 5760 5759 5757 5756 5755 5755 5754 5753 5752 5752 5752 5751 5750 5749 5748 5748 5748 5749 5749 5748 5747 5747 5746
5801 5797 5793 5791 5788 5785 5783 5780 5778 5776 5773 5771 5769 5768 5766 5765 5764 5762 5761 5760 5759 5758 5757 5755 5754 5754 5753 5752 5751 5751 5750 5749 5748 5748 5747 5747 5747 5747 5748 5748 5748 5747 5745
5799 5795 5793 5790 5787 5784 5781 5779 5777 5775 5772 5770 5768 5767 5765 5764 5762 5761 5760 5759 5758 5757 5756 5755 5754 5753 5752 5751 5750 5750 5749 5748 5747 5746 5746 5746 5746 5746 5747 5748 5748 5747 5746
5795 5793 5791 5789 5786 5783 5780 5778 5776 5774 5771 5769 5767 5766 5764 5762 5761 5760 5759 5758 5756 5756 5755 5753 5753 5752 5751 5750 5749 5748 5747 5746 5746 5745 5745 5745 5745 5746 5747 5748 5748 5747 5746
5792 5791 5790 5788 5785 5782 5780 5777 5775 5772 5770 5768 5766 5764 5763 5761 5759 5758 5758 5756 5755 5754 5753 5752 5751 5750 5749 5748 5747 5745 5744 5744 5744 5743 5743 5744 5744 5745 5747 5748 5749 5747 5745
5795 5793 5791 5788 5785 5783 5780 5777 5774 5772 5769 5767 5765 5763 5762 5760 5758 5757 5756 5755 5754 5753 5752 5750 5749 5748 5747 5746 5745 5743 5743 5742 5742 5742 5742 5742 5743 5744 5746 5749 5749 5747 5745
5795 5793 5791 5789 5786 5783 5780 5777 5774 5771 5768 5766 5764 5763 5761 5759 5757 5755 5754 5753 5752 5751 5750 5749 5748 5747 5746 5745 5743 5742 5741 5740 5740 5740 5740 5741 5742 5744 5746 5747 5748 5747 5745
5795 5793 5791 5790 5786 5783 5780 5776 5773 5771 5768 5766 5764 5762 5760 5758 5756 5754 5753 5751 5751 5750 5748 5747 5746 5745 5744 5743 5742 5741 5740 5739 5739 5738 5738 5739 5740 5742 5744 5746 5745 5744 5742
5794 5791 5790 5788 5787 5784 5780 5776 5773 5771 5768 5765 5763 5761 5760 5758 5755 5753 5751 5750 5750 5748 5747 5745 5744 5743 5742 5741 5739 5739 5738 5738 5737 5737 5736 5737 5738 5740 5742 5743 5743 5742 5740
5794 5791 5787 5785 5784 5782 5779 5775 5772 5770 5767 5764 5762 5760 5758 5757 5755 5752 5750 5749 5748 5747 5746 5744 5742 5741 5739 5738 5736 5736 5735 5735 5735 5735 5734 5734 5735 5737 5738 5740 5740 5739 5738
5795 5791 5787 5785 5782 5779 5776 5774 5771 5769 5766 5763 5761 5759 5757 5755 5753 5751 5749 5747 5746 5745 5744 5742 5739 5737 5735 5734 5733 5733 5733 5733 5733 5733 5732 5732 5733 5734 5735 5736 5736 5736 5735
5795 5791 5786 5783 5779 5777 5774 5772 5769 5766 5764 5761 5759 5757 5755 5753 5751 5749 5747 5745 5744 5743 5741 5739 5736 5734 5732 5731 5730 5730 5730 5730 5731 5731 5730 5730 5731 5731 5732 5732 5733 5732 5732
5791 5789 5785 5780 5777 5774 5771 5768 5765 5762 5760 5758 5757 5755 5753 5751 5749 5747 5745 5743 5742 5739 5737 5735 5733 5732 5730 5728 5729 5728 5727 5728 5728 5728 5728 5729 5728 5729 5729 5729 5729 5729 5728
5786 5783 5780 5776 5772 5770 5766 5763 5759 5756 5755 5754 5754 5752 5751 5748 5746 5744 5742 5741 5739 5736 5734 5732 5730 5728 5726 5726 5723 5721 5723 5725 5725 5725 5726 5726 5726 5726 5726 5726 5726 5726 5724
5782 5779 5776 5773 5770 5768 5765 5762 5759 5756 5753 5752 5750 5749 5748 5746 5744 5742 5740 5738 5736 5733 5731 5729 5727 5724 5723 5723 5719 5713 5710 5713 5718 5722 5722 5722 5722 5723 5722 5723 5723 5722 5721
5777 5776 5774 5770 5768 5766 5763 5759 5756 5751 5748 5746 5744 5744 5744 5743 5741 5739 5737 5735 5733 5730 5727 5726 5725 5722 5718 5719 5718 5713 5705 5702 5707 5714 5717 5718 5719 5719 5719 5720 5719 5719 5719
5773 5773 5770 5767 5765 5762 5760 5755 5751 5746 5742 5741 5741 5740 5740 5739 5738 5736 5735 5733 5730 5728 5725 5724 5722 5720 5717 5713 5714 5714 5712 5709 5703 5702 5708 5713 5715 5715 5716 5717 5717 5717 5716
5769 5768 5766 5763 5760 5758 5756 5753 5748 5744 5741 5739 5738 5736 5735 5735 5734 5733 5731 5729 5727 5725 5723 5721 5719 5717 5715 5712 5710 5709 5708 5707 5705 5700 5698 5704 5708 5711 5713 5713 5714 5714 5713
5765 5763 5760 5757 5754 5753 5751 5748 5745 5741 5739 5735 5733 5731 5730 5729 5729 5728 5727 5726 5724 5722 5719 5718 5716 5715 5713 5711 5709 5708 5705 5702 5700 5698 5696 5697 5699 5705 5709 5710 5710 5710 5709